Theta_e
325 324 323 323 324 324 323 323 323 322 321 320 319 319 320 319 319 319 319 319 319 319 319 318 316 314 313 312 310 310 310 309 309 309 309 309 308 308 308 308 307 307 307 306 306 305 305 306 306 306 306 305 304 305 307 308 309 308 307 308 309 310 309 308 307 305 304 303 303 302 301 302 302 303 304 304 304 306 306 305 305 306 309 312 315
325 325 325 324 323 323 323 323 324 323 321 320 319 319 320 320 319 319 319 319 319 319 319 319 318 318 317 315 314 313 311 310 310 310 309 309 309 309 309 308 308 309 309 307 306 306 305 305 306 306 306 305 304 304 306 307 307 307 307 307 308 308 307 308 308 307 306 305 304 303 302 303 303 303 302 302 303 304 305 305 304 304 304 306 308
325 325 325 324 323 323 323 323 323 322 321 321 320 320 320 320 319 319 319 319 319 319 319 319 319 319 319 318 317 316 315 313 312 311 310 309 310 310 309 309 309 309 309 308 307 308 307 305 305 306 305 305 305 304 305 305 305 306 306 305 305 306 306 306 307 308 308 308 308 307 306 304 303 302 301 303 305 306 306 306 306 307 307 308 309
325 324 324 324 323 323 324 324 324 323 322 322 322 321 321 321 321 319 318 318 318 318 319 319 318 318 319 319 319 318 317 316 314 313 312 311 310 310 310 310 309 309 309 308 308 309 308 306 305 305 305 305 305 304 305 306 306 306 305 304 304 305 306 306 307 307 308 308 308 307 306 305 304 304 304 305 306 308 308 308 308 308 309 309 310
324 324 324 324 324 324 325 325 325 323 322 322 321 321 321 321 321 319 318 318 318 318 319 319 318 318 318 319 320 319 319 318 316 316 314 313 312 311 311 310 310 310 310 309 309 308 308 307 305 305 305 305 304 304 304 305 304 303 303 301 301 303 304 305 305 305 305 306 305 303 304 305 305 306 306 306 307 308 309 309 309 309 309 308 308
323 323 323 323 322 322 323 324 324 323 323 323 323 322 321 319 319 319 319 319 318 316 317 318 318 318 318 319 319 319 319 319 318 317 316 315 314 312 312 311 311 310 310 310 309 309 308 306 305 305 305 304 304 303 303 303 302 301 301 300 299 301 302 302 302 303 303 304 304 303 303 304 305 306 306 306 307 307 307 308 308 309 310 310 310
322 322 322 321 319 318 319 320 322 322 322 322 322 322 321 319 318 317 318 318 318 317 317 318 318 319 318 318 319 319 319 320 319 318 317 316 315 314 313 312 312 311 311 311 310 309 309 307 306 304 304 304 303 303 303 302 301 300 299 299 298 299 300 300 300 300 301 303 304 305 305 305 306 306 306 306 307 307 307 308 308 309 311 312 312
317 317 317 316 315 315 314 315 316 316 316 316 317 318 318 317 316 317 317 317 318 319 319 318 319 319 318 318 319 319 319 319 319 319 318 317 316 315 314 313 312 311 311 311 311 310 310 308 306 304 304 304 303 303 302 301 300 300 298 297 297 297 296 296 296 297 299 301 303 304 305 305 305 305 306 306 306 307 307 308 309 309 309 310 309
313 312 311 311 311 311 310 310 310 311 311 312 312 313 313 313 313 314 315 315 318 319 319 319 319 320 319 319 318 318 319 319 319 319 318 317 316 315 315 314 313 312 311 311 311 311 310 308 306 305 304 304 303 302 302 302 301 300 298 297 296 296 295 295 295 295 296 297 298 299 300 302 302 303 304 304 305 305 306 306 306 306 306 307 307
311 310 308 308 309 309 309 309 308 309 310 312 312 311 311 312 312 313 313 315 317 318 319 320 321 321 321 321 320 319 318 318 318 318 318 318 317 316 315 314 313 312 311 311 311 310 309 307 306 305 304 304 304 304 304 303 301 299 298 297 296 296 296 296 295 295 295 295 295 296 296 297 298 300 301 303 303 304 304 305 306 306 306 307 308
308 308 307 307 307 307 307 307 306 306 309 311 313 314 314 315 316 318 318 316 313 313 315 317 319 319 319 319 320 320 319 319 318 317 318 318 317 316 315 314 313 312 311 310 309 308 307 306 304 304 304 304 304 304 303 302 301 299 298 298 298 297 297 296 296 296 296 296 296 296 296 296 296 297 299 301 303 304 305 305 305 306 306 307 307
306 307 307 306 306 306 306 306 305 304 305 305 307 309 310 312 313 316 318 316 312 310 310 309 312 315 317 319 321 321 320 320 319 317 317 318 317 316 315 314 313 312 310 309 307 307 306 305 304 303 303 303 303 302 301 300 299 299 299 299 298 298 297 296 296 296 296 296 296 296 296 296 297 297 297 298 299 301 302 303 303 304 305 305 305
307 306 306 306 306 305 306 308 307 306 305 304 303 303 303 307 311 313 315 316 316 314 309 306 305 308 312 317 320 321 321 320 320 319 317 317 317 316 315 314 313 311 309 307 307 307 306 304 303 303 302 302 302 300 300 299 299 300 300 299 298 297 296 296 295 295 296 296 297 297 297 298 298 297 298 298 298 299 299 300 301 302 302 302 303
309 309 308 308 308 307 308 309 308 307 305 304 303 303 302 306 311 314 314 315 316 316 313 310 307 305 308 313 316 318 321 321 320 320 318 318 317 315 314 314 312 310 309 307 306 305 304 303 302 302 302 301 301 300 300 300 300 300 300 299 297 296 296 295 295 295 296 297 297 298 298 298 298 298 298 299 299 299 300 299 299 299 299 299 300
310 309 309 309 309 309 310 310 308 306 304 303 302 302 303 305 309 313 314 314 315 316 316 315 313 310 311 314 315 316 319 320 319 319 318 317 316 315 313 312 311 309 308 306 304 304 304 303 303 302 301 300 300 300 300 300 300 299 299 298 297 296 295 296 296 296 296 297 297 298 298 298 298 298 298 299 300 300 300 300 300 299 299 299 299
309 309 308 308 309 310 311 310 309 307 305 304 304 304 304 306 309 312 315 315 315 315 315 316 315 314 314 314 314 315 317 318 318 317 317 317 315 313 312 311 310 309 307 306 305 305 304 304 303 301 300 300 300 300 300 299 299 299 298 297 296 296 296 296 296 296 296 297 297 297 298 298 298 298 298 298 298 299 299 299 299 299 299 298 299
308 308 308 307 308 309 310 310 309 309 307 306 306 306 306 306 308 311 314 315 315 315 314 314 315 315 314 314 313 314 316 316 317 316 316 315 314 312 312 311 310 308 307 306 305 304 303 302 302 301 300 300 300 300 300 300 299 299 298 297 297 296 296 296 296 296 297 296 297 297 297 297 297 298 298 298 297 297 297 297 297 297 297 297 297
308 308 307 307 307 308 309 309 309 309 308 307 306 306 305 303 306 310 313 314 314 314 314 314 314 314 313 312 313 314 315 315 316 316 315 314 313 312 312 311 309 307 305 304 303 302 302 302 301 301 301 300 300 300 300 299 299 298 298 297 297 296 296 296 296 296 296 296 296 296 296 296 297 297 297 297 297 297 297 297 297 297 296 296 296
307 307 307 307 306 307 307 308 308 307 307 307 306 305 303 302 305 309 312 313 313 314 314 313 314 314 313 313 313 314 315 315 314 313 313 313 312 311 310 309 307 305 303 302 302 302 302 302 302 301 301 301 300 299 299 299 298 298 297 297 297 296 296 296 296 296 296 295 295 295 295 295 295 295 295 296 296 296 297 297 297 297 297 296 296
307 307 307 306 306 306 306 307 307 307 308 308 307 305 303 302 303 307 311 313 313 313 313 312 313 313 313 313 313 314 314 313 311 310 311 311 310 309 308 306 305 303 301 301 301 301 301 301 301 301 300 300 299 299 298 298 297 297 297 297 297 296 296 296 296 295 295 295 295 294 294 294 294 294 294 294 294 295 295 295 296 296 296 296 296
307 307 307 306 306 305 305 306 306 307 308 309 309 307 304 302 302 304 308 312 312 312 312 312 312 312 313 313 313 312 312 310 309 309 309 309 309 308 305 302 302 301 301 301 301 301 300 299 299 299 299 298 298 298 298 297 297 297 297 297 296 296 296 295 295 294 294 294 294 294 293 293 293 293 293 293 294 294 294 294 295 295 296 296 296
306 306 306 306 306 305 305 305 305 306 307 308 308 307 306 304 303 305 308 310 312 312 312 312 312 312 312 312 312 311 309 308 308 308 308 307 306 303 300 299 299 300 300 300 300 299 298 298 298 298 298 298 298 298 297 297 297 296 296 295 295 295 294 294 293 293 293 293 292 292 292 292 292 292 292 292 293 293 293 294 295 295 295 296 296
306 306 306 305 305 305 305 305 305 305 306 306 306 307 307 307 307 308 309 310 311 311 311 312 312 312 311 310 310 309 308 307 306 306 305 304 301 299 297 296 296 296 297 297 296 296 296 297 297 297 297 297 297 297 297 296 295 295 294 294 294 293 293 293 292 292 292 292 292 291 291 291 292 292 292 292 292 293 293 294 294 295 295 295 295
306 306 305 305 305 305 305 305 304 305 305 306 306 307 308 309 309 310 310 310 311 311 311 311 311 311 310 309 309 308 306 305 303 301 300 299 297 296 295 295 294 294 294 294 294 293 294 294 295 295 295 295 295 295 295 295 294 294 294 293 293 293 292 292 292 292 292 292 292 292 292 292 292 292 292 292 292 292 292 293 293 294 294 294 295
306 306 306 306 305 305 305 305 305 305 306 306 306 307 308 309 310 310 310 310 311 311 310 310 310 309 309 308 307 306 304 302 300 298 296 295 295 295 295 294 294 294 294 294 293 294 293 293 293 293 294 294 294 294 294 294 294 293 293 293 293 292 292 292 292 292 292 292 292 292 292 292 293 293 293 293 293 293 293 293 293 293 293 294 294
305 305 305 305 305 305 305 305 306 306 306 306 307 307 308 309 309 309 308 308 309 309 309 309 308 308 307 306 305 304 301 298 297 296 295 295 295 295 295 295 295 294 294 294 294 294 294 293 293 293 294 294 295 294 294 293 293 293 293 292 292 292 292 292 292 292 292 292 292 292 292 292 292 293 293 293 293 293 293 293 293 293 294 294 294
304 304 304 304 304 304 305 305 305 305 306 306 307 307 308 308 308 308 307 306 307 308 308 308 308 307 306 304 303 300 298 296 296 295 296 296 296 296 296 296 296 296 295 295 295 294 293 293 293 294 294 295 294 294 293 293 293 293 292 292 292 292 292 292 292 292 292 292 292 292 292 292 292 292 292 292 292 293 293 293 293 294 294 294 294
303 303 303 303 303 303 303 303 304 304 305 306 306 307 307 307 307 307 306 306 306 307 306 307 307 306 304 302 300 298 297 297 297 297 297 297 296 296 296 297 296 296 296 295 294 293 292 293 293 294 294 294 294 294 293 293 292 292 292 291 291 291 291 291 291 291 291 292 292 292 292 292 292 292 292 292 292 292 292 292 293 293 294 294 294
302 302 302 302 302 303 303 303 303 304 305 306 306 306 306 306 307 306 306 305 306 306 305 305 305 304 303 301 299 298 298 298 298 297 297 297 297 296 296 296 295 295 294 293 292 292 293 293 294 294 294 294 293 293 292 292 292 291 291 291 291 291 291 291 291 291 291 291 292 292 291 291 291 291 291 292 292 292 292 292 292 292 293 293 293
302 302 302 302 302 303 303 303 303 304 305 305 305 306 306 306 306 305 304 304 305 306 305 305 304 302 301 300 299 298 298 298 297 297 296 296 296 296 296 295 294 293 292 291 292 293 293 293 293 293 293 293 292 292 292 291 291 291 291 291 291 291 290 290 290 291 291 291 291 291 291 291 291 291 291 291 291 291 291 291 291 291 292 292 292
302 302 302 302 302 303 303 303 304 304 304 305 305 305 305 305 305 305 304 305 305 304 303 303 302 301 300 299 298 298 298 298 297 297 296 296 296 296 295 294 293 292 291 291 292 293 293 293 293 293 292 292 292 292 291 291 291 291 290 290 290 290 290 290 290 290 290 290 290 290 290 290 290 290 290 290 290 290 290 290 291 291 291 291 292
302 302 302 302 302 302 303 303 304 304 304 305 305 305 305 305 304 304 303 303 303 302 301 301 300 299 299 299 298 298 298 297 297 297 297 296 296 296 295 294 293 291 291 292 293 293 293 293 292 292 292 291 291 291 290 290 290 290 290 290 290 290 290 291 291 291 290 290 290 290 290 290 290 290 290 290 290 290 290 290 290 290 291 291 291
302 302 302 302 302 303 303 303 304 304 305 305 305 304 304 304 304 303 301 300 300 300 300 300 299 298 298 298 298 298 298 297 297 297 297 296 296 295 295 294 293 291 291 292 293 293 293 292 292 291 291 291 290 290 290 290 290 290 290 290 290 290 291 291 291 290 290 290 290 290 290 290 290 289 289 290 290 290 290 290 290 290 290 291 291
302 302 302 302 303 303 303 303 304 304 305 305 304 304 304 304 303 302 300 299 299 299 299 299 298 298 298 297 297 297 297 296 296 296 296 296 295 295 294 294 293 292 292 292 292 292 292 291 291 291 290 290 290 290 290 290 291 290 290 290 290 290 291 291 291 290 290 290 290 290 290 289 289 289 289 289 289 289 290 290 290 290 290 291 291
302 302 302 302 303 303 303 304 304 304 304 304 304 303 302 302 302 300 299 298 298 298 298 297 297 296 296 295 295 295 295 295 296 296 295 295 294 294 294 294 293 293 292 292 292 292 292 291 290 290 290 290 290 290 290 290 290 290 290 290 290 291 291 291 291 291 290 290 290 290 290 290 290 289 289 289 289 289 290 290 290 290 290 291 291
301 302 302 302 303 303 303 303 303 303 304 303 303 302 300 300 299 298 298 298 298 297 296 296 296 296 296 296 296 295 295 295 295 295 295 294 294 294 294 293 293 293 292 292 292 292 291 290 290 290 290 290 290 290 290 290 290 290 290 290 291 291 291 292 291 291 291 290 290 290 290 290 290 290 290 289 290 290 290 290 290 290 290 290 291
301 301 302 302 303 303 303 303 303 303 302 302 301 300 299 298 298 298 298 297 297 297 297 297 297 297 297 297 296 295 295 295 295 295 294 294 294 294 294 294 293 292 292 292 292 291 291 290 290 290 290 290 290 290 290 290 289 290 290 290 291 291 291 291 291 291 291 290 290 290 290 290 290 290 290 290 290 290 290 290 290 290 290 290 291
301 301 301 302 302 303 303 303 302 302 301 300 299 299 298 297 297 297 297 297 297 297 297 296 296 297 296 296 295 295 295 295 295 295 295 295 294 294 294 294 293 292 291 292 292 291 291 290 290 290 289 289 290 289 289 289 289 289 290 290 291 291 291 291 291 291 291 290 290 290 290 290 290 290 290 290 290 290 290 290 290 290 291 291 291
301 302 302 302 302 303 303 302 301 300 299 299 298 298 298 297 297 297 297 297 297 297 296 296 296 296 296 296 296 295 295 296 296 295 295 295 295 294 294 293 292 292 291 291 291 291 290 290 290 289 289 289 289 289 289 289 289 290 290 290 291 291 291 291 291 291 291 291 291 291 291 291 291 291 290 290 290 291 291 291 291 291 291 291 291
302 302 302 302 302 302 302 301 300 299 298 298 298 298 297 297 297 297 297 297 297 297 297 297 297 297 297 296 296 296 296 296 296 296 295 295 295 294 294 293 292 292 291 291 291 291 290 290 290 289 289 289 289 289 289 289 290 290 290 291 291 291 291 291 291 291 291 291 291 291 291 291 291 291 291 291 291 292 292 292 292 292 292 292 292
301 301 301 301 301 300 299 298 298 298 298 298 297 297 297 297 297 297 297 297 297 297 297 297 297 297 297 296 296 296 296 296 296 296 295 295 295 294 294 293 292 292 291 291 291 290 290 290 290 289 290 290 290 290 289 290 290 290 290 291 291 291 291 291 291 291 291 291 291 291 291 291 291 291 292 292 292 293 293 293 293 293 293 292 292
300 300 299 299 299 298 298 297 297 297 297 297 297 297 297 297 297 297 297 298 297 297 297 297 297 297 296 296 296 296 296 296 296 295 295 295 295 294 293 293 292 292 291 291 291 290 290 290 290 290 291 291 291 290 290 290 290 290 290 291 291 291 291 291 291 291 291 291 292 292 292 292 292 292 293 293 293 294 294 294 294 294 294 294 294
299 298 298 298 298 298 297 297 297 297 297 297 297 298 298 298 298 298 298 298 298 298 298 298 297 297 296 296 296 296 296 296 295 295 295 295 295 293 293 293 292 291 290 291 291 291 291 291 291 291 292 292 291 291 290 290 290 290 290 291 291 291 291 291 291 291 291 292 292 292 292 292 293 293 294 294 294 294 295 295 295 295 295 295 295
298 297 297 297 297 297 297 297 297 297 297 298 298 298 298 298 298 298 298 298 298 298 298 298 297 297 297 297 296 295 295 295 295 294 294 294 294 293 292 292 291 290 290 291 291 291 292 292 292 292 292 292 292 291 291 291 290 290 290 290 291 291 291 291 291 291 292 292 292 293 293 293 293 293 294 294 294 294 295 295 295 296 296 296 295
298 298 297 297 297 297 298 298 298 298 298 298 298 298 298 298 298 298 298 298 298 298 297 297 297 297 296 295 295 294 294 294 294 293 293 294 293 293 293 292 290 289 290 291 291 291 292 292 292 292 292 292 292 292 291 291 291 290 290 290 290 291 291 291 291 292 292 292 292 293 293 293 293 293 294 294 294 295 295 295 295 296 296 296 296
298 298 298 298 298 298 298 298 298 298 299 298 298 298 298 298 298 298 298 297 297 297 297 297 297 296 295 294 294 294 294 293 293 293 294 294 293 293 293 291 289 289 291 291 291 291 292 292 292 292 292 292 292 292 292 291 291 290 290 290 290 291 291 291 292 292 292 292 292 293 293 293 293 294 294 294 295 295 295 295 296 296 296 296 296
298 298 298 298 298 298 298 298 298 298 299 299 298 298 298 298 297 297 297 297 297 296 296 296 295 295 295 294 293 293 293 292 292 294 294 293 292 293 292 290 289 290 292 292 291 291 292 292 292 292 292 292 291 291 291 291 291 290 290 290 290 290 291 291 291 292 292 292 292 292 293 293 293 294 294 294 295 295 295 295 296 296 296 296 296
298 297 298 297 298 298 298 298 298 298 298 298 298 297 297 297 296 296 296 296 296 296 296 295 294 294 293 292 292 292 291 291 293 294 293 292 292 293 292 290 289 290 292 292 292 291 292 292 292 292 292 291 290 290 290 290 290 290 290 290 290 290 291 291 291 292 292 292 292 292 292 293 293 293 294 294 294 295 295 295 295 296 296 296 296
297 297 297 297 297 297 297 297 297 297 297 297 297 297 296 297 297 297 297 296 296 295 295 294 293 292 291 291 291 291 291 291 293 294 293 291 292 293 292 290 289 290 292 292 292 291 291 292 292 292 291 290 290 289 289 289 289 289 290 290 291 290 290 291 291 291 292 292 292 292 292 292 293 293 293 293 293 294 295 295 295 295 296 296 295
296 296 297 297 297 297 297 297 297 297 296 297 297 297 297 297 297 296 296 295 294 293 293 292 292 291 291 290 291 291 290 292 294 295 294 292 293 293 291 289 289 290 292 292 292 292 292 292 292 292 291 290 289 289 289 289 289 289 289 290 291 290 290 291 291 291 291 292 292 292 292 292 293 293 293 293 293 294 294 294 295 295 295 295 294
296 296 296 296 296 296 296 297 297 297 297 297 297 297 297 297 296 295 293 293 292 292 291 291 291 291 290 290 290 290 291 293 295 296 294 293 293 292 291 289 288 290 291 292 292 292 292 292 291 291 290 289 289 288 289 289 289 288 289 291 291 291 291 291 291 291 291 292 292 292 292 292 293 293 293 293 293 293 293 294 294 294 294 294 294
Wind_Speed
16 14 15 15 16 18 18 17 17 18 19 18 17 17 17 17 16 15 14 14 15 16 15 13 12 11 10 9 8 7 7 7 7 7 8 7 6 6 4 3 3 4 3 2 1 1 1 2 2 3 5 6 6 5 5 8 10 11 12 12 10 9 9 9 13 17 15 13 13 14 13 13 14 13 14 16 16 17 18 18 18 18 19 19 18
16 16 16 14 13 14 16 17 17 17 19 20 20 20 19 18 19 18 17 16 15 16 16 14 13 13 13 13 13 11 10 10 10 10 10 10 9 8 7 6 5 6 6 5 4 3 1 1 3 4 5 6 6 5 3 3 5 5 6 7 6 7 9 11 13 17 18 18 16 15 14 13 14 14 14 15 15 15 16 17 16 15 15 16 17
16 15 15 14 12 12 13 16 17 16 18 19 19 20 21 20 20 20 20 19 17 16 17 16 14 15 15 15 16 16 14 13 12 12 12 12 12 11 11 9 8 8 9 7 6 6 5 3 4 6 6 6 7 7 5 4 3 3 5 7 8 9 10 12 13 16 19 20 18 17 17 16 17 17 16 15 16 16 17 17 17 16 15 15 16
15 13 14 15 15 14 13 13 14 16 19 19 17 17 19 20 20 20 20 19 18 16 17 18 17 16 17 18 18 18 17 16 16 15 15 14 15 15 13 12 11 11 10 8 6 8 9 7 6 7 8 8 8 8 6 6 5 6 8 9 8 8 9 11 12 14 16 18 18 18 18 19 19 18 17 16 15 16 17 17 16 16 17 17 18
17 15 16 16 14 14 13 11 12 14 18 19 19 19 20 19 18 18 17 17 18 17 18 19 19 18 19 20 20 19 19 19 19 19 18 17 17 17 16 15 14 13 12 10 8 10 11 10 8 9 9 9 9 8 6 7 8 10 11 11 10 10 11 13 14 15 16 18 20 20 19 18 18 17 17 16 16 16 17 17 17 18 18 16 14
16 16 17 16 14 12 11 11 13 15 16 18 20 20 21 21 18 17 18 19 20 20 21 22 21 20 20 20 21 21 20 20 20 21 21 20 20 20 19 17 15 14 13 12 11 12 12 12 11 11 11 10 10 9 9 10 12 13 13 13 12 11 12 14 14 15 16 18 19 20 19 18 17 17 16 15 16 17 17 18 18 18 18 16 13
13 13 14 14 13 12 11 11 12 12 12 14 15 15 17 19 18 17 19 22 24 24 25 25 23 22 23 23 23 22 22 22 21 22 23 23 22 22 20 19 17 16 15 14 14 14 12 12 12 12 12 11 11 11 12 12 13 14 14 14 14 13 14 14 14 14 15 16 18 18 19 18 17 18 17 15 16 17 16 17 18 16 15 15 16
10 9 10 10 9 9 9 9 8 6 6 6 7 7 7 8 7 7 10 15 19 20 21 21 21 23 25 26 26 25 25 25 24 24 25 25 24 23 22 21 20 19 18 18 17 16 15 13 13 13 13 12 12 12 13 14 15 15 15 15 15 16 16 16 16 15 15 15 16 17 17 17 17 17 17 16 16 16 15 17 20 20 19 19 21
11 8 7 7 7 6 4 4 3 3 3 3 4 5 6 6 6 7 8 10 13 16 17 16 17 20 24 27 27 26 28 30 29 28 28 27 26 25 25 24 23 21 21 21 19 18 17 15 14 14 14 13 13 14 15 16 17 16 15 16 16 17 17 17 17 17 18 18 19 19 19 19 19 18 18 17 18 19 20 20 23 24 24 24 23
13 11 10 9 6 4 3 1 1 0 1 3 4 4 6 8 9 10 10 9 11 13 15 14 16 18 21 24 25 27 29 32 32 31 29 28 27 28 27 26 24 22 23 23 21 19 17 15 14 14 13 13 13 15 18 19 18 17 17 16 16 16 17 17 18 19 20 21 21 21 21 22 21 20 20 19 18 19 21 21 22 23 23 23 22
9 8 6 4 3 2 2 3 3 2 2 1 1 1 2 3 5 6 7 8 9 10 12 13 15 17 19 20 22 26 28 30 32 32 29 29 30 30 29 26 24 22 22 21 19 18 15 13 13 14 14 14 15 17 19 19 18 18 18 18 18 17 17 18 19 20 21 22 22 22 23 24 23 22 21 20 18 19 20 20 21 22 21 22 23
4 5 7 6 4 5 6 4 3 3 2 1 1 2 2 3 4 6 7 8 8 9 10 12 14 17 19 20 21 24 26 27 30 32 31 30 31 31 30 27 25 23 21 19 17 16 15 13 13 14 15 16 18 19 19 19 18 19 19 20 20 21 22 22 22 22 23 24 25 25 25 25 25 24 23 23 23 24 26 26 25 25 25 24 25
2 2 3 2 3 5 5 3 2 3 4 5 5 6 6 5 6 6 6 8 9 11 12 12 12 14 18 21 22 24 26 27 29 31 32 33 34 34 32 30 27 25 22 20 18 16 13 11 12 13 16 18 19 19 19 18 17 17 18 20 22 23 25 25 25 25 25 25 26 26 26 26 26 26 24 23 25 26 28 29 30 30 30 30 29
2 1 2 2 2 1 3 3 2 2 4 6 7 8 8 6 6 8 9 9 10 13 15 13 11 11 13 19 22 23 24 26 28 29 32 34 35 35 33 30 27 24 21 19 17 13 11 12 14 14 16 17 17 16 15 14 14 15 17 20 22 24 26 26 27 27 26 25 26 27 27 26 26 26 23 21 21 23 25 28 30 32 33 35 36
5 4 3 3 2 1 2 2 3 5 6 7 8 9 9 7 7 9 10 10 10 12 14 15 14 11 11 16 20 20 22 23 25 27 30 32 34 34 32 28 25 23 20 18 16 15 15 16 16 16 16 16 16 17 16 16 18 20 21 23 24 26 27 27 27 27 26 25 26 27 28 27 27 27 24 22 23 24 25 28 30 32 35 38 40
5 5 5 4 4 4 5 4 4 5 6 8 9 8 8 7 7 9 11 11 10 11 12 14 16 15 14 16 18 20 22 22 22 25 28 30 31 31 29 27 26 25 23 20 19 18 16 15 15 15 16 16 16 17 18 20 22 24 25 27 29 29 29 28 28 27 26 25 25 26 28 28 29 29 28 28 30 31 32 34 35 36 39 42 43
6 6 6 5 5 6 6 5 5 5 5 6 7 7 8 8 7 8 10 11 11 11 12 13 14 15 18 20 18 18 21 22 23 24 26 27 28 28 29 29 28 26 22 19 17 15 14 14 14 15 15 15 17 18 19 22 24 26 28 30 30 30 30 30 30 28 26 26 27 28 28 29 30 31 31 30 31 31 33 36 36 35 36 38 40
7 6 6 5 6 7 6 6 6 6 7 7 7 8 10 10 8 8 10 12 12 13 13 12 13 16 21 22 19 18 18 20 21 22 23 26 28 29 31 30 27 22 17 14 12 12 11 12 13 15 16 18 19 21 22 25 26 27 29 30 31 32 33 33 33 31 29 28 29 30 31 31 31 31 31 31 30 28 30 34 33 32 34 35 35
7 7 7 7 7 7 8 8 9 10 10 9 10 11 12 11 9 8 10 12 13 14 13 12 15 19 22 21 19 17 17 18 19 20 22 26 28 29 28 26 22 16 11 10 10 10 9 10 13 16 18 20 21 23 24 25 27 28 30 32 34 35 36 36 37 37 37 37 37 37 38 38 37 37 36 36 35 33 33 34 32 30 32 34 32
9 9 9 9 9 9 9 10 10 10 10 10 12 13 14 13 11 10 11 13 13 13 13 14 17 21 22 20 19 18 18 18 18 19 22 24 26 26 23 20 16 13 10 10 11 10 9 11 15 17 19 21 22 23 25 26 28 30 32 34 36 37 38 39 40 41 42 43 43 43 42 41 40 40 38 36 36 36 35 35 33 31 32 32 31
11 11 11 11 12 12 12 12 12 11 10 11 13 14 14 15 14 12 12 13 13 14 15 17 19 21 21 21 21 19 18 17 15 16 20 23 24 21 17 16 16 15 14 13 13 12 10 12 17 18 19 22 23 25 27 29 31 33 34 36 38 39 40 41 41 41 41 41 41 40 37 34 32 31 30 28 27 27 27 28 29 29 29 30 30
13 14 14 14 15 14 14 14 14 14 14 14 15 15 16 16 15 13 13 14 16 18 19 19 20 21 21 23 23 19 15 14 13 16 20 22 19 16 14 15 16 17 16 15 15 15 12 13 17 20 21 24 26 28 30 32 34 36 37 37 37 37 37 37 36 36 36 35 33 31 29 28 26 25 25 23 22 22 22 23 24 25 25 27 28
16 16 16 16 16 17 17 17 16 17 17 17 17 17 16 15 14 13 14 17 20 21 21 20 21 22 22 22 20 16 13 13 15 17 18 18 15 13 13 13 14 15 15 15 16 16 14 15 19 22 24 25 27 29 31 32 33 33 32 31 30 29 28 28 28 28 28 26 25 25 24 24 24 24 23 22 21 21 21 22 23 23 24 25 26
18 18 18 19 19 19 19 18 18 19 19 18 18 17 16 14 12 13 16 19 21 21 21 19 20 22 21 20 18 15 14 16 17 16 14 13 12 12 11 10 10 11 12 12 13 14 15 17 20 22 22 24 25 27 27 27 25 23 23 22 21 20 20 21 22 21 21 21 22 23 23 23 23 23 23 23 22 22 21 22 23 23 24 26 26
20 20 20 19 19 19 18 18 18 18 18 18 17 17 16 15 15 17 19 19 18 19 19 19 19 20 21 19 17 16 17 18 17 15 13 11 10 9 8 7 7 8 9 11 12 13 15 16 18 18 19 20 21 21 21 20 20 19 19 18 17 18 18 20 20 20 20 22 23 24 25 25 25 25 25 25 25 25 24 25 25 25 25 25 26
23 22 22 21 20 19 18 17 17 17 17 17 17 17 17 17 18 19 19 17 17 18 19 20 20 21 20 18 17 18 18 17 14 13 12 10 9 8 7 6 7 8 9 10 11 13 13 15 16 17 17 16 16 17 18 19 19 19 17 16 16 17 18 19 21 22 23 24 25 26 27 28 28 28 27 27 27 27 27 28 29 29 27 26 26
25 24 23 22 21 20 20 18 17 17 17 17 17 17 17 17 18 18 17 15 16 18 19 20 20 21 21 19 19 19 18 16 14 13 13 12 10 8 7 5 5 7 8 9 11 12 15 17 17 15 13 13 14 15 15 17 18 17 17 16 17 17 18 19 20 22 24 25 26 27 28 28 29 29 29 29 30 29 28 28 29 29 27 27 28
26 27 26 22 20 21 22 20 19 19 18 18 18 17 16 16 15 14 12 13 15 18 19 19 21 22 22 21 22 21 19 17 16 14 11 10 8 5 4 5 6 7 8 10 11 13 15 15 12 10 10 12 14 15 14 15 16 17 17 17 18 18 19 20 21 22 24 25 27 28 28 29 30 30 30 31 32 31 30 30 30 30 29 28 29
26 28 28 26 23 22 22 22 21 19 18 20 21 20 19 18 16 14 13 14 16 18 19 19 22 23 24 24 24 23 21 17 14 11 9 7 6 4 4 5 6 7 8 10 11 11 10 7 7 9 12 14 15 15 14 15 16 17 18 19 20 21 22 22 23 24 25 26 27 28 30 31 32 32 33 33 33 33 31 31 32 33 32 31 32
27 26 25 26 26 24 23 23 22 20 19 21 22 21 21 21 19 17 15 15 18 20 19 20 24 27 27 25 22 20 19 16 13 11 9 8 6 5 4 4 5 7 8 9 8 6 5 7 8 11 14 14 14 14 15 16 18 19 20 21 22 23 24 24 24 25 26 26 27 29 30 31 32 33 34 35 36 35 34 33 33 33 33 33 34
28 26 25 25 26 25 25 23 21 21 22 24 24 22 22 20 18 15 13 14 18 19 20 23 26 26 26 24 21 19 18 15 12 10 8 6 5 3 2 3 4 5 5 5 4 5 7 9 11 12 13 13 13 14 16 18 19 21 23 24 24 25 26 26 26 26 27 28 29 30 30 31 31 31 31 33 34 35 34 34 33 32 32 32 33
28 26 25 25 25 26 25 23 22 23 25 26 25 23 21 19 15 12 11 14 16 19 22 24 24 22 21 20 20 19 17 14 10 8 6 4 2 1 1 2 4 7 7 6 6 8 8 11 12 11 12 13 14 15 17 19 21 23 25 27 28 28 28 28 27 28 28 29 30 31 31 31 31 31 30 30 31 31 31 31 31 31 30 31 32
29 28 27 26 25 24 23 22 23 25 26 25 24 21 20 18 16 16 18 18 19 22 24 23 21 21 20 18 17 17 15 11 8 6 4 2 1 1 2 4 8 11 11 9 9 8 11 13 12 11 12 13 15 16 18 20 22 24 26 28 29 29 29 28 28 29 29 30 30 31 32 32 32 32 31 30 30 30 30 30 30 29 29 30 30
27 28 28 27 26 24 23 24 25 26 26 24 21 19 19 18 19 22 26 26 25 25 25 23 21 20 19 16 14 13 11 9 6 4 2 0 0 1 3 7 10 11 11 10 8 10 13 12 11 11 12 14 15 17 19 21 23 25 27 29 30 30 29 29 29 30 30 30 31 32 32 32 31 31 31 30 29 29 30 29 29 28 28 29 30
28 28 28 28 27 26 25 25 25 25 25 23 21 20 21 22 24 28 32 32 29 26 25 24 21 18 16 14 12 10 8 7 5 3 3 4 4 5 7 8 8 9 9 8 7 11 12 10 11 12 13 14 16 18 20 22 24 26 29 30 30 30 29 28 28 29 30 30 31 31 30 30 29 28 28 28 28 28 28 28 28 28 29 30 31
29 29 29 29 28 28 28 27 25 25 25 24 22 23 26 30 32 33 32 31 28 24 23 22 20 17 14 12 9 8 6 5 4 5 7 7 7 7 7 5 4 5 6 6 8 11 10 10 10 12 13 14 17 19 21 23 25 27 28 29 29 28 27 27 28 30 30 30 29 29 28 27 26 26 26 26 26 27 27 27 27 28 28 29 29
33 31 29 28 29 29 29 27 25 25 25 25 26 28 31 33 33 31 28 27 25 22 21 19 17 15 13 10 8 7 6 5 5 6 8 7 6 6 5 3 5 6 5 7 9 10 10 10 11 12 13 16 19 21 22 25 27 28 28 28 28 28 28 28 29 30 30 29 28 27 27 26 25 24 25 25 26 26 25 25 26 26 27 27 27
32 32 31 29 30 29 28 26 25 25 25 26 29 32 34 33 30 28 26 25 22 20 17 15 13 11 10 9 9 8 7 6 5 6 6 6 5 4 3 5 7 6 6 7 9 9 9 10 11 12 15 17 20 22 24 26 28 29 29 28 28 28 28 29 30 29 29 28 27 26 25 25 24 23 23 23 24 24 24 24 23 24 24 24 24
27 28 29 31 32 31 30 28 26 25 27 29 31 33 33 31 29 27 25 22 19 16 14 12 11 10 9 8 9 9 8 7 6 5 4 4 3 2 3 5 7 8 8 8 9 9 9 10 11 13 15 18 20 22 24 27 29 29 28 28 28 28 29 30 31 31 29 28 27 26 25 24 23 21 20 20 21 22 22 22 22 22 22 22 21
19 19 23 27 31 31 29 28 28 29 31 32 33 33 32 30 27 25 22 20 17 15 13 10 9 8 7 7 8 8 5 4 4 2 1 1 1 4 6 6 7 8 9 9 9 9 9 10 11 14 16 19 22 25 27 29 30 29 28 28 28 29 31 32 32 32 31 29 28 26 24 23 21 20 19 19 19 20 20 20 20 20 20 21 20
20 24 26 28 30 31 31 32 33 34 33 32 32 31 29 26 22 20 19 17 15 13 12 12 13 11 8 5 5 4 2 2 4 4 3 4 5 6 6 6 7 8 10 10 8 8 8 10 12 15 18 22 25 27 29 30 30 29 28 28 29 31 33 34 34 33 32 30 28 26 24 22 20 19 18 18 17 17 17 17 17 17 17 17 17
29 31 32 32 34 35 34 34 34 33 32 31 29 27 25 22 19 18 17 15 13 14 15 15 14 11 7 5 7 8 8 6 7 7 5 6 6 4 4 5 8 11 11 9 8 7 9 11 14 17 20 24 26 27 29 30 30 29 28 29 31 32 34 35 35 34 32 30 27 25 23 21 18 16 16 15 14 14 13 13 13 12 11 11 11
35 35 35 35 34 33 32 32 32 31 30 27 25 23 22 19 17 16 15 14 15 15 15 12 9 7 5 5 7 10 9 7 5 4 5 6 6 3 3 5 10 11 8 7 8 9 10 12 16 19 21 24 26 26 28 29 29 29 29 31 32 33 34 35 35 34 32 30 27 24 22 20 17 16 15 13 12 12 11 10 9 9 7 6 5
35 34 33 33 32 31 31 30 29 27 24 21 20 19 19 17 15 15 14 14 13 12 10 7 6 6 5 4 4 4 3 5 4 1 1 4 5 4 4 6 9 9 6 5 9 11 11 13 17 20 21 23 24 25 27 28 30 30 31 32 33 33 34 35 35 34 32 30 27 24 22 20 18 17 16 13 10 10 10 9 9 8 6 4 5
30 30 30 30 29 28 27 26 24 23 22 20 19 19 19 18 17 17 16 14 11 9 7 5 3 3 3 4 5 5 4 7 7 5 4 3 4 5 6 7 8 7 5 4 7 10 11 14 17 19 20 22 24 26 27 29 31 32 33 32 32 32 33 34 33 32 31 29 27 24 22 21 20 18 16 13 10 8 9 9 9 8 7 7 8
28 30 29 29 28 28 27 26 25 24 24 23 22 21 20 19 18 17 16 13 10 7 4 3 3 4 5 5 6 8 10 9 6 5 6 6 6 7 7 7 7 6 6 4 6 9 11 13 16 18 20 22 25 27 29 31 33 34 34 33 30 30 32 32 32 31 30 29 28 25 23 22 21 18 16 14 11 9 8 8 8 8 8 9 10
27 27 27 26 26 26 26 25 23 22 21 20 19 18 17 16 14 11 10 9 8 7 5 4 5 6 7 8 8 9 10 8 5 2 2 3 5 7 7 7 6 7 7 5 5 8 10 12 14 16 19 22 25 27 29 31 33 34 35 34 31 30 30 31 30 29 28 28 27 25 23 22 21 19 17 15 13 11 9 8 7 6 6 6 7
25 24 23 22 21 19 18 17 16 15 15 16 15 14 13 12 11 9 8 8 8 7 6 5 6 7 8 6 4 3 4 5 5 3 5 3 8 11 9 8 7 7 8 6 6 8 10 11 12 15 19 23 25 27 28 30 31 33 34 34 32 30 29 28 28 28 27 27 26 25 24 23 21 19 18 17 15 13 10 9 8 7 5 3 3
21 21 20 18 17 15 13 12 11 11 12 12 12 12 11 10 10 10 9 8 7 7 6 5 6 6 6 4 4 4 4 4 6 6 6 3 9 10 7 7 6 7 8 7 6 8 9 9 11 15 19 22 24 26 27 28 30 31 32 33 32 30 28 27 27 27 27 26 25 24 24 24 22 20 18 18 17 14 12 10 9 8 7 5 3
16 16 16 14 13 13 12 12 12 12 12 11 10 10 10 9 9 9 8 7 8 8 8 7 6 5 5 5 6 6 6 5 6 6 6 5 4 4 5 6 6 6 8 8 7 7 7 8 11 15 18 21 24 25 25 26 28 30 31 32 32 30 27 26 25 26 27 26 24 23 23 23 22 21 20 19 17 16 14 13 11 10 8 6 5
14 14 13 13 13 14 13 13 13 13 12 11 11 10 9 9 8 8 8 8 8 9 8 8 7 7 6 6 6 6 5 4 4 4 4 4 1 3 5 6 5 6 7 8 8 7 7 8 11 15 17 20 22 23 23 24 26 28 29 31 31 30 27 25 24 25 26 26 24 23 22 22 21 21 20 19 18 17 15 13 12 10 8 6 5
Wind_Direction
169 177 187 192 194 189 184 185 189 191 190 192 194 197 205 206 201 208 215 214 221 233 240 245 255 260 259 263 267 264 262 261 257 251 248 247 249 250 251 253 252 249 245 242 246 270 16 8 5 28 29 26 26 21 11 351 341 351 354 352 355 348 332 318 306 306 312 314 310 312 314 309 303 299 294 289 287 286 285 285 284 278 273 271 270
173 174 179 184 192 194 192 191 194 199 200 204 207 206 210 211 204 204 208 210 218 232 238 240 244 249 252 256 262 265 265 263 261 258 257 256 254 255 264 271 260 251 260 277 278 266 264 274 286 320 354 5 5 12 17 302 290 320 328 315 311 305 300 299 296 297 306 314 317 320 325 322 314 311 308 304 303 301 299 299 300 297 290 283 279
177 179 177 177 182 187 193 196 198 203 205 207 215 219 219 217 210 204 205 209 214 225 237 241 241 244 246 246 251 259 264 267 266 261 258 257 257 258 263 268 264 255 260 274 275 270 278 277 267 291 320 336 341 351 353 327 307 292 273 275 284 292 301 303 299 300 307 314 317 319 321 316 312 314 316 313 310 308 304 302 304 306 306 304 303
168 177 179 180 185 187 189 193 197 206 210 211 218 221 221 222 218 213 213 217 217 218 230 240 243 246 244 239 241 248 254 262 269 269 263 257 258 261 261 260 257 254 259 263 252 253 272 287 284 288 305 320 326 336 340 331 320 298 286 287 288 288 294 292 289 291 295 299 302 304 305 307 310 314 315 311 306 302 300 300 299 297 296 292 286
157 173 182 183 189 195 199 200 207 216 219 219 221 219 221 226 227 227 229 229 225 224 230 235 239 244 244 241 239 241 245 252 259 265 267 261 258 259 259 258 253 250 254 256 240 237 256 273 276 275 285 300 310 316 311 297 292 293 292 289 283 273 268 267 268 273 278 284 291 296 300 303 305 307 307 308 308 304 300 300 298 296 296 296 289
161 171 178 182 189 200 210 216 221 226 225 224 224 225 230 234 236 239 242 242 241 241 243 241 236 236 239 242 242 241 243 246 249 255 261 261 258 255 254 253 250 247 248 247 241 241 252 262 263 264 271 284 293 295 293 292 295 299 298 294 290 281 272 270 271 276 281 286 291 297 302 304 304 305 307 307 303 299 297 297 300 302 303 306 304
175 171 172 180 192 205 214 214 216 221 222 224 229 233 235 236 239 246 251 253 252 249 251 249 242 237 238 239 239 239 239 242 245 248 252 255 256 252 248 244 244 245 244 241 246 254 261 262 260 262 268 278 286 289 292 296 299 301 300 297 292 285 280 278 277 279 284 288 292 296 301 303 302 302 305 304 298 297 298 297 294 290 285 282 281
162 168 169 166 167 178 187 186 187 193 194 206 224 232 230 228 231 241 249 254 252 250 254 254 246 243 242 239 237 237 239 240 241 244 247 248 249 247 244 241 241 243 243 243 248 258 265 268 267 267 273 283 290 291 293 297 300 300 297 294 290 287 285 284 282 281 281 283 286 289 292 294 295 296 299 300 298 296 293 287 282 278 274 274 277
125 130 141 142 143 147 154 163 172 195 219 246 260 261 266 272 269 266 267 263 253 249 253 253 247 245 244 242 243 242 242 242 243 245 244 242 242 242 241 241 244 248 249 248 249 255 261 267 269 271 280 290 293 293 296 299 301 299 296 293 291 290 289 288 288 288 287 285 283 283 282 282 284 287 288 288 287 287 285 285 286 287 288 289 289
121 121 121 123 128 127 124 139 140 120 299 298 301 298 288 282 276 272 269 262 252 251 253 251 249 249 248 249 250 246 243 245 248 247 242 237 237 238 237 239 246 251 250 247 250 256 261 266 271 274 281 287 291 295 297 300 301 300 297 296 293 291 290 291 293 295 295 294 293 290 286 282 281 281 282 283 285 287 288 289 290 290 291 294 294
142 150 158 161 167 196 223 210 191 187 171 169 309 345 299 270 264 254 250 254 257 260 263 262 259 257 256 256 254 250 247 246 246 245 239 233 234 235 234 239 244 245 243 244 249 255 263 272 277 278 282 288 294 296 296 298 300 300 300 299 297 296 296 297 299 301 301 300 298 296 292 289 287 282 279 278 276 275 276 275 276 278 282 287 289
225 241 255 258 235 220 226 226 224 235 247 261 267 272 269 266 263 252 253 266 271 266 267 271 270 265 262 260 257 255 254 248 242 240 236 233 233 232 233 239 241 236 235 238 243 253 269 280 277 275 283 292 298 299 298 300 302 302 302 303 304 304 304 305 307 308 307 305 301 299 296 295 294 290 285 280 273 268 269 269 270 272 274 277 280
291 277 261 229 182 188 195 198 223 252 285 305 309 310 310 299 286 275 264 268 272 272 275 276 274 271 265 260 257 254 253 248 242 239 236 233 233 232 234 238 238 233 232 235 242 254 267 270 265 269 281 291 296 297 297 301 303 301 299 299 301 303 304 306 308 309 308 304 299 297 297 297 296 295 293 289 281 276 273 271 270 270 270 270 270
174 126 130 148 152 169 168 177 210 249 289 306 307 309 312 297 272 264 258 255 258 266 273 277 277 275 264 258 258 256 253 250 248 244 238 233 231 231 233 235 235 235 236 240 247 250 241 238 247 260 272 281 286 287 289 292 291 287 287 290 295 298 300 301 304 306 305 301 295 294 295 294 292 293 294 291 286 283 280 277 276 275 274 273 271
181 176 178 172 180 205 188 216 272 299 314 319 315 311 311 298 273 262 260 257 251 258 272 280 284 283 264 252 253 256 254 251 249 243 235 231 230 231 231 232 234 237 238 235 238 241 239 245 259 268 271 272 270 271 275 277 275 276 280 286 291 293 294 296 299 304 305 300 293 291 292 293 292 292 291 286 282 280 279 279 280 281 280 280 278
204 202 197 194 203 203 198 222 271 296 310 317 319 317 309 292 275 267 267 264 254 251 258 268 278 282 270 255 251 252 252 250 246 239 233 232 234 232 230 232 236 239 239 238 243 252 260 270 276 277 278 277 273 273 277 278 278 280 284 289 293 294 295 297 299 302 303 298 290 286 286 285 284 283 281 278 276 277 276 276 276 278 280 281 281
218 215 214 218 215 208 212 230 247 262 283 300 307 305 299 291 278 265 265 266 263 256 251 253 263 268 265 262 258 252 250 250 248 243 240 242 243 239 236 238 240 241 243 247 253 260 268 275 278 277 278 275 272 273 276 276 278 282 286 290 294 295 296 298 299 299 299 295 289 284 279 276 275 275 275 274 274 275 276 277 277 279 281 282 282
227 224 226 231 226 225 232 235 236 249 264 276 283 286 294 301 292 268 261 262 262 260 258 257 254 253 257 261 260 253 250 251 250 248 248 248 246 241 239 240 240 240 245 254 261 268 272 272 275 278 275 271 271 274 276 277 279 283 286 289 290 291 294 297 297 294 291 288 285 284 282 280 279 278 277 276 275 273 273 274 277 279 280 281 283
239 239 240 244 246 248 246 241 246 261 271 279 284 288 297 304 295 272 263 260 258 258 261 259 253 252 255 257 254 250 246 246 250 253 254 250 243 236 236 237 236 236 243 258 269 279 282 273 269 272 272 271 275 277 276 277 279 281 283 285 286 289 292 293 292 291 290 288 286 285 284 282 281 280 278 276 274 272 270 271 272 273 275 278 281
249 249 249 254 257 258 256 254 258 264 265 269 278 285 293 297 290 271 258 255 256 258 257 249 245 250 254 252 248 243 239 244 253 257 252 246 238 232 231 231 227 219 218 235 246 251 260 265 264 266 270 272 274 275 275 277 279 280 281 283 285 287 289 289 288 289 288 288 288 287 287 286 284 283 283 279 275 273 271 271 271 271 271 274 275
252 252 253 258 261 262 262 260 258 255 250 254 263 272 281 287 285 273 257 250 250 248 247 243 242 245 248 246 243 240 242 252 260 252 241 234 231 229 223 216 213 208 206 215 226 228 240 263 269 269 271 271 272 274 276 277 278 278 280 282 283 285 287 287 288 288 288 288 289 290 291 292 290 288 288 285 281 278 275 271 270 270 269 270 272
257 258 260 262 263 264 262 258 254 250 247 249 255 263 270 274 274 266 253 246 243 241 242 244 242 240 240 241 243 246 253 257 250 238 231 226 222 221 214 210 216 220 219 221 230 233 238 258 270 272 271 271 272 275 277 278 279 281 282 284 285 286 287 288 289 291 292 293 294 293 293 292 290 288 288 286 283 280 275 269 267 267 267 267 269
260 260 260 260 260 260 258 257 256 253 253 256 259 261 264 265 262 256 247 241 239 241 243 240 236 236 238 241 246 253 251 237 224 221 222 217 210 212 214 215 223 232 234 237 243 245 242 248 260 267 270 273 276 278 280 282 283 284 286 288 290 291 292 294 296 297 298 299 298 296 295 294 293 292 291 288 285 281 277 271 267 265 266 266 267
260 260 260 259 260 261 260 260 259 257 256 259 260 258 256 255 250 242 240 239 238 240 240 232 226 230 235 239 242 241 227 212 206 204 203 203 203 210 219 224 230 240 248 251 255 257 255 254 259 267 273 276 278 280 283 286 289 291 294 298 301 303 305 307 309 307 303 300 298 296 296 296 294 292 292 292 292 289 283 278 273 268 265 264 264
262 261 261 261 261 262 262 262 261 259 258 257 256 253 250 248 241 236 238 241 237 232 230 225 220 223 230 236 233 220 205 199 197 194 192 197 203 207 217 230 239 250 260 263 266 269 268 267 272 279 284 286 290 296 302 306 308 308 309 311 313 313 314 316 316 311 304 301 300 298 299 299 296 293 292 293 293 290 287 285 283 278 274 271 267
263 260 257 259 261 261 261 261 259 258 258 257 254 250 246 246 244 242 244 245 237 226 225 227 221 218 224 227 216 200 192 189 189 190 190 192 195 200 209 218 229 243 256 265 272 277 282 288 294 296 298 303 309 315 319 319 316 312 312 313 313 313 313 313 310 306 302 300 300 298 298 298 297 295 294 293 291 289 288 288 287 285 283 280 276
260 260 258 258 259 260 261 262 259 258 259 258 256 248 243 245 249 248 246 242 233 226 226 227 222 215 213 208 195 186 180 176 178 184 185 183 187 198 211 227 246 264 280 291 297 300 301 299 298 300 308 315 314 312 313 312 309 307 305 304 305 305 304 301 299 297 296 297 297 297 297 296 295 294 292 291 290 289 288 287 286 286 284 280 277
261 264 266 266 263 261 262 262 260 260 258 255 253 248 241 243 247 245 239 236 235 234 232 228 224 216 205 193 183 175 170 171 178 181 181 184 195 213 245 273 284 290 297 304 304 297 291 291 296 308 314 306 296 293 292 292 294 296 299 303 307 308 306 303 300 298 296 295 295 295 293 292 291 290 289 288 288 287 287 286 284 284 283 279 276
266 266 266 265 263 261 260 259 258 258 252 248 251 251 247 242 236 233 238 240 241 245 244 232 219 207 193 184 180 176 173 173 176 175 178 190 207 233 262 279 287 290 293 298 294 285 288 310 326 312 297 290 289 292 293 294 299 305 308 310 312 312 310 308 304 299 296 294 291 290 290 290 289 288 287 286 285 285 285 284 283 282 281 279 276
265 263 260 259 258 256 256 256 255 252 249 248 250 250 246 240 235 242 254 248 236 237 237 221 204 194 185 181 180 180 178 173 171 177 185 192 205 228 253 277 292 292 291 295 295 299 328 340 319 297 291 295 300 303 306 308 310 311 311 310 310 310 310 309 306 303 300 296 293 293 294 294 292 290 288 286 285 284 283 281 281 281 279 277 276
258 257 253 253 253 251 249 250 250 251 251 249 245 243 240 239 239 246 253 240 224 217 209 197 189 186 183 177 170 170 172 172 175 183 187 188 198 229 273 292 303 312 309 307 330 3 352 323 306 300 303 306 307 308 309 311 312 313 313 313 314 315 314 313 312 309 305 301 298 298 299 300 299 296 292 289 287 285 284 283 282 280 277 275 275
253 252 250 248 249 248 246 246 248 250 245 238 235 235 236 232 225 214 205 204 199 189 182 179 176 176 178 174 168 169 174 177 183 187 185 191 216 267 301 309 358 16 10 4 18 14 339 310 306 309 309 310 312 315 318 320 320 318 316 315 317 319 318 318 317 313 308 304 302 301 302 303 303 301 297 293 290 287 284 282 281 280 278 276 274
250 249 247 245 244 244 244 244 244 242 236 229 228 231 231 226 211 188 173 171 173 171 171 171 169 169 173 175 175 179 183 185 186 181 176 201 274 321 328 355 17 20 17 22 22 351 316 308 314 317 315 319 325 328 330 329 324 319 317 317 318 320 321 321 319 314 311 309 307 305 305 306 305 304 300 296 292 289 285 282 280 280 278 276 275
247 246 245 242 241 240 239 238 238 235 230 229 227 224 221 218 204 183 168 163 163 164 164 165 166 167 169 171 173 177 179 175 168 155 135 358 24 59 28 22 17 5 5 19 8 323 309 315 324 324 325 331 336 337 334 328 322 319 320 320 321 322 323 323 320 316 314 311 309 308 308 308 306 304 300 296 292 289 285 282 280 278 276 275 276
245 243 241 239 238 237 236 236 236 231 225 222 219 211 202 194 184 173 165 162 161 158 156 156 159 160 162 162 163 163 163 160 147 107 72 77 88 78 51 35 14 349 350 360 331 308 311 322 327 330 335 336 337 336 331 324 321 321 322 322 323 323 325 325 325 322 319 316 312 311 310 309 307 304 301 297 294 289 285 283 281 277 275 273 272
240 238 239 238 236 235 237 238 234 225 215 208 200 191 182 175 169 165 162 161 160 157 153 152 153 156 159 161 162 163 157 143 114 78 68 75 84 77 59 34 346 315 318 317 305 306 317 329 333 336 335 333 335 336 332 328 327 327 326 326 326 326 328 329 328 327 324 321 317 316 314 312 310 307 303 299 294 291 288 285 282 279 277 274 272
237 236 236 234 231 231 234 233 224 213 202 192 182 175 170 166 162 159 157 158 159 157 155 155 157 160 162 161 161 158 143 123 101 78 68 66 71 69 53 354 304 301 315 316 309 312 325 335 336 334 334 335 336 335 333 333 333 333 333 333 331 330 331 331 330 329 328 324 322 321 318 315 312 309 305 300 295 291 288 286 283 280 277 274 272
234 232 230 230 230 229 223 213 201 193 186 179 172 168 164 160 156 154 156 157 158 157 156 156 157 158 158 156 151 143 129 112 97 82 70 61 57 54 24 320 307 313 327 320 309 313 328 334 329 329 336 340 338 334 335 337 337 336 335 335 334 334 335 334 334 334 333 330 328 326 323 319 316 312 307 302 297 293 290 287 284 282 280 276 272
232 232 229 227 225 219 205 191 179 173 170 167 163 161 159 155 152 154 157 156 155 155 155 155 153 149 148 147 143 138 128 114 100 90 73 49 26 348 309 308 315 321 322 315 310 318 332 330 325 332 342 345 343 342 343 341 338 336 336 337 337 338 340 340 340 339 337 335 333 331 327 324 320 317 311 304 298 294 291 287 285 283 280 278 274
221 213 207 202 198 191 181 169 161 159 158 157 156 156 154 152 151 154 154 150 145 142 139 142 153 163 163 156 147 138 126 111 112 118 111 117 241 271 285 305 321 321 315 311 315 326 333 330 332 343 349 350 349 350 349 345 341 339 339 340 342 344 346 346 344 343 341 339 337 334 331 329 326 321 314 307 301 297 294 291 289 286 282 277 273
173 166 166 165 161 155 149 146 148 149 149 148 149 150 148 148 151 153 149 142 139 142 149 163 177 187 194 183 157 146 131 137 165 187 214 220 229 259 297 326 327 313 306 309 322 332 331 335 347 355 356 355 355 353 350 347 345 343 344 346 348 348 348 348 348 347 345 342 340 338 336 334 330 324 318 312 307 302 298 297 296 291 285 278 273
141 140 138 136 134 133 133 138 143 144 143 144 145 144 143 147 151 151 147 148 156 168 175 177 179 184 196 200 191 197 209 205 194 204 233 248 248 266 331 339 311 298 301 314 330 333 330 344 360 4 2 1 360 356 353 351 349 349 351 353 353 351 350 349 350 350 347 346 345 344 341 339 335 328 321 315 309 304 301 302 303 300 291 280 270
122 121 122 124 127 129 132 137 140 140 140 141 141 140 143 148 149 148 150 158 169 179 182 181 182 192 207 209 201 204 213 220 219 234 266 276 277 299 355 320 297 298 310 325 327 328 341 0 9 10 8 6 4 1 359 356 355 355 357 357 356 353 351 350 352 352 351 351 350 349 346 345 343 338 332 323 312 304 302 303 307 308 301 281 256
113 117 120 123 127 130 132 135 137 137 138 140 142 145 150 152 151 151 150 153 166 184 193 193 196 203 206 192 160 150 193 228 223 193 359 334 325 328 324 301 298 309 329 328 318 328 355 13 14 13 13 11 9 8 6 3 1 1 0 359 357 355 353 352 353 355 355 356 355 353 351 351 352 349 344 334 318 304 299 299 300 299 289 267 249
110 116 120 121 123 126 130 134 136 137 138 139 139 143 148 150 153 156 155 156 169 188 197 197 194 173 157 152 134 133 191 232 224 186 178 213 246 266 285 301 310 317 320 313 320 340 5 18 16 14 15 15 14 14 11 8 6 5 2 358 356 356 355 353 354 357 359 0 359 357 356 357 356 355 351 344 332 313 296 290 289 286 274 260 256
111 116 119 120 119 121 127 133 134 134 135 138 140 145 151 156 160 164 167 171 175 179 184 195 176 145 151 179 191 192 208 230 234 203 200 216 233 255 287 316 329 325 318 324 343 356 10 20 18 15 15 17 17 16 14 10 7 5 1 357 356 356 356 355 355 358 2 3 1 360 0 360 359 359 358 354 350 339 318 298 287 280 271 264 264
114 117 120 122 122 124 129 136 139 140 142 147 152 155 158 161 161 161 165 169 167 162 161 163 166 175 195 218 229 223 222 233 241 208 87 1 315 301 317 337 337 330 334 349 9 13 17 23 22 17 18 20 19 16 15 12 8 4 1 358 356 356 356 356 357 359 3 6 5 5 5 3 1 3 5 3 3 1 350 332 319 308 293 280 279
120 121 124 125 126 127 130 137 145 153 159 162 162 156 150 150 150 149 150 155 161 168 177 184 196 214 221 220 223 242 249 244 224 152 87 15 295 292 316 338 337 339 345 355 21 27 20 20 22 21 21 22 19 15 13 12 7 4 3 0 359 357 356 357 359 1 5 9 9 8 8 8 7 9 10 8 7 10 8 359 354 355 354 338 320
123 125 126 127 128 130 133 138 146 154 159 159 155 149 146 150 154 154 155 160 164 168 176 184 200 225 231 204 194 229 253 237 207 171 141 199 258 277 314 334 338 349 350 352 19 30 14 9 21 26 24 22 17 12 10 9 7 5 3 2 2 360 357 358 3 5 6 10 12 11 10 11 12 14 16 13 10 13 19 20 16 17 24 38 50
128 131 133 134 134 135 138 141 142 142 142 142 144 146 151 156 159 160 164 174 178 179 182 184 189 208 227 224 222 236 243 230 212 190 168 186 241 294 334 339 345 358 353 352 17 31 13 9 24 27 22 16 12 8 7 6 5 4 3 4 4 2 359 360 5 8 8 11 14 14 13 13 12 14 18 18 15 16 22 26 28 31 38 54 76
134 135 136 137 138 139 140 141 140 139 141 145 149 156 161 167 172 174 177 183 188 191 197 204 206 215 233 244 248 250 244 229 225 213 185 179 226 336 347 346 354 5 359 360 16 23 12 14 26 24 15 8 5 4 4 4 4 4 3 4 7 7 4 3 7 11 12 12 14 17 19 19 16 14 16 18 18 19 22 26 32 37 42 59 88